Regional Weather Roundup
Issued by NWS Charleston, SC

Current Version | Previous Version | Graphics & Text | Print | Product List | Glossary On
Versions: 1 2 3 4 5 6 7 8 9 10 11 12 13 14 15 16 17 18 19 20 21 22 23 24 25 26 27 28 29 30 31 32 33 34 35 36 37 38 39 40 41 42 43 44 45 46 47 48 49 50
000
ASUS42 KCHS 111527
RWRCHS

REGIONAL WEATHER ROUNDUP
NATIONAL WEATHER SERVICE CHARLESTON SC
1000 AM EST THU FEB 11 2016

NOTE: "FAIR" INDICATES FEW OR NO CLOUDS BELOW 12,000 FEET WITH NO
SIGNIFICANT WEATHER AND/OR OBSTRUCTIONS TO VISIBILITY.

NOT ALL STATIONS ARE QUALITY CONTROLLED BY THE NATIONAL
WEATHER SERVICE. USE DATA WITH CAUTION...ESPECIALLY
DEWPOINT OBSERVATIONS.

SCZ027-030-031-034>040-042>050-111600-
...SOUTHEAST SOUTH CAROLINA...

CITY           SKY/WX    TMP DP  RH WIND       PRES   REMARKS
N CHARLESTON   SUNNY     41  15  35 NW9       30.28F
WATERFRONT PRK   N/A     40  19  43 W6        30.13S WCI  36
MOUNT PLEASANT FAIR      39  19  45 NW8       30.28F WCI  34
JOHNS ISLAND   FAIR      45  14  29 W10       30.28F
PINOPOLIS        N/A     36  19  51 W9        30.19R WCI  29
MONCKS CORNER  FAIR      37  14  38 NW3       30.27F
SUMMERVILLE    FAIR      41  19  42 W6        30.29F
BEAUFORT MCAS  MOSUNNY   45  13  27 NW9       30.29S
BEAUFORT ARPT  FAIR      45  16  31 W5        30.28F HAZE
HILTON HEAD IS SUNNY     45  18  33 NW3       30.30S
WALTERBORO     SUNNY     45  16  31 SW6       30.28F
ALLENDALE      FAIR      43  14  31 CALM      30.26F

...SOUTHERN MIDLANDS AND PEE DEE...

CITY           SKY/WX    TMP DP  RH WIND       PRES   REMARKS
GEORGETOWN     FAIR      37  18  44 NW7       30.28S WCI  32
KINGSTREE      FAIR      36  14  41 SW5       30.27S WCI  32
ORANGEBURG     SUNNY     38  15  39 SW7       30.26F WCI  33
BARNWELL       FAIR      45  18  33 CALM      30.27S
AIKEN          FAIR      36  14  41 W7        30.27S WCI  30
MANNING        FAIR      36  18  48 S7        30.28S WCI  30
COLUMBIA       MOSUNNY   37  16  42 VRB7      30.26R WCI  32
SUMTER         SUNNY     36  17  45 W9        30.24R WCI  29
FLORENCE       SUNNY     34  10  37 NW7       30.25S WCI  28
MYRTLE BEACH   SUNNY     37  12  35 NW7       30.29  WCI  32
N MYRTLE BEACH SUNNY     37  12  35 VRB6      30.25S WCI  32

$$

GAZ063-065-086>088-099>101-113>116-118-119-134>141-150-111600-
...SOUTHEAST GEORGIA...

CITY           SKY/WX    TMP DP  RH WIND       PRES   REMARKS
SAVANNAH ARPT  SUNNY     45  18  34 CALM      30.29F
HUNTER AAF     SUNNY     44  20  38 VRB1      30.26F
FORT STEWART   SUNNY     43  23  44 CALM      30.26F
STATESBORO     SUNNY     48  12  23 CALM      30.26F
SYLVANIA       SUNNY     44  22  41 CALM      30.27F
CLAXTON        FAIR      46  25  43 CALM      30.27F

...CSRA...CENTRAL AND FAR SOUTHEAST GEORGIA...

CITY           SKY/WX    TMP DP  RH WIND       PRES   REMARKS
THOMSON        SUNNY     43  19  37 CALM      30.28R
AUGUSTA-BUSH   SUNNY     41  16  36 CALM      30.26S
AUGUSTA-DANIEL NOT AVBL
SWAINSBORO     FAIR      43  18  36 CALM      30.26S
VIDALIA        SUNNY     46  23  39 S5        30.26S
EASTMAN        FAIR      47  29  48 SW3       30.27S
HAZLEHURST     FAIR      50  30  45 SW8       30.25S
ALMA           SUNNY     46  27  47 SW7       30.27S
WAYCROSS       SUNNY     55  33  43 SW9       30.28S
JESUP          FAIR      52  27  37 SW5       30.29S
BAXLEY         FAIR      50  28  43 S8        30.27R
BRUNSWICK      SUNNY     52  25  35 SW6       30.30S
SAINT SIMONS   SUNNY     46  26  45 SW6       30.30R

$$

SCZ027-028-034-036>038-045-046-048>050-GAZ119-141-111600-
...LAKE AND SUPPLEMENTAL COASTAL OBSERVATIONS...

STATION/POSITION TIME  TEMP    WIND        PRES    WAVE   SWELL
                       AIR SEA DIR/SP/G            HT/PER HT/PER/DIR
                 (UTC) (F)     (DEG/KT/KT) (MB)    (FT/S) (FT/S/D)
WINYAH BAY       1445   36     280/  6     1024.0R
LAKE MURRAY      1400   34     270/  2/  5 1023.4R
ACE BASIN NERRS  1400   40     260/  3     1025.0
FORT PULASKI     1500   43 50  260/  4/  5 1025.9F
SAPELO ISLAND    1500   45     220/  1     1026.0S

$$

ANZ835-935-AMZ111-154-330-350-352-354-370-450-454-472-111600-
...C-MAN AND BUOY OBSERVATIONS...

STATION/POSITION TIME  TEMP    WIND        PRES    WAVE   SWELL
                       AIR SEA DIR/SP/G            HT/PER HT/PER/DIR
                 (UTC) (F)     (DEG/KT/KT) (MB)    (FT/S) (FT/S/D)
BUOY 41004       NOT AVBL
BUOY 41008       NOT AVBL
FOLLY BEACH CMAN 1400   38     250/  9/ 12 1025.8R
CAPERS NEARSHORE 1408   38     300/ 12/ 17 1025.0R
FRIPP NEARSHORE  NOT AVBL


STATION/POSITION TIME  TEMP    WIND        PRES    WAVE   SWELL
                       AIR SEA DIR/SP/G            HT/PER HT/PER/DIR
                 (UTC) (F)     (DEG/KT/KT) (MB)    (FT/S) (FT/S/D)
5E ST. MARYS GA  1421      55                N/A     1/14   2/ 80/14
FRYING PAN BUOY  NOT AVBL
BUOY 41025       NOT AVBL
CAPE LOOKOUT NC  NOT AVBL
BUOY 41002       NOT AVBL
BUOY 41010       NOT AVBL
ST AUGUSTINE FL  1400   45 55  280/  4/  5 1027.7R


$$



USA.gov is the U.S. government's official web portal to all federal, state and local government web resources and services.